Time,TemperatureF,DewpointF,PressureIn,WindDirection,WindDirectionDegrees,WindSpeedMPH,WindSpeedGustMPH,Humidity,HourlyPrecipIn,Conditions,Clouds,dailyrainin,SolarRadiationWatts/m^2,SoftwareType,DateUTC
2013-07-27 00:01:00,68.8,66.6,30.01,East,90,0.0,2.0,93,0.00,,,0.00,0,HR-IXPWINDi_r2_v1.2.,2013-07-27 04:01:00,
2013-07-27 00:06:00,68.9,66.4,30.01,East,90,0.0,0.0,92,0.00,,,0.00,0,HR-IXPWINDi_r2_v1.2.,2013-07-27 04:06:00,
2013-07-27 00:11:00,69.0,66.5,30.01,East,90,0.0,1.0,92,0.00,,,0.00,0,HR-IXPWINDi_r2_v1.2.,2013-07-27 04:11:00,
2013-07-27 00:16:00,68.8,66.3,30.01,East,90,0.0,1.0,92,0.00,,,0.00,0,HR-IXPWINDi_r2_v1.2.,2013-07-27 04:16:00,
2013-07-27 00:21:00,68.6,66.1,30.01,East,90,0.0,1.0,92,0.00,,,0.00,0,HR-IXPWINDi_r2_v1.2.,2013-07-27 04:21:00,
2013-07-27 00:26:00,68.6,66.4,30.01,East,90,0.0,1.0,93,0.00,,,0.00,0,HR-IXPWINDi_r2_v1.2.,2013-07-27 04:26:00,
2013-07-27 00:31:00,68.6,66.4,30.01,East,90,0.0,1.0,93,0.00,,,0.00,0,HR-IXPWINDi_r2_v1.2.,2013-07-27 04:31:00,
2013-07-27 00:37:00,68.5,66.3,30.01,East,90,0.0,1.0,93,0.00,,,0.00,0,HR-IXPWINDi_r2_v1.2.,2013-07-27 04:37:00,
2013-07-27 00:42:00,68.5,66.3,30.01,NNE,30,0.0,4.0,93,0.00,,,0.00,0,HR-IXPWINDi_r2_v1.2.,2013-07-27 04:42:00,
2013-07-27 00:47:00,68.7,66.5,30.01,NNE,30,0.0,4.0,93,0.00,,,0.00,0,HR-IXPWINDi_r2_v1.2.,2013-07-27 04:47:00,
2013-07-27 00:52:00,68.7,66.5,30.01,NNE,30,0.0,1.0,93,0.00,,,0.00,0,HR-IXPWINDi_r2_v1.2.,2013-07-27 04:52:00,
2013-07-27 00:57:00,68.8,66.3,30.01,NNE,30,2.0,3.0,92,0.00,,,0.00,0,HR-IXPWINDi_r2_v1.2.,2013-07-27 04:57:00,
2013-07-27 01:02:00,68.4,66.2,30.02,SSW,204,0.0,6.0,93,0.00,,,0.00,0,HR-IXPWINDi_r2_v1.2.,2013-07-27 05:02:00,
2013-07-27 01:07:00,68.8,66.6,30.02,ESE,123,0.0,6.0,93,0.00,,,0.00,0,HR-IXPWINDi_r2_v1.2.,2013-07-27 05:07:00,
2013-07-27 01:12:00,69.8,66.3,30.01,SSW,209,0.0,7.0,89,0.00,,,0.00,0,HR-IXPWINDi_r2_v1.2.,2013-07-27 05:12:00,
2013-07-27 01:18:00,70.1,66.3,30.01,East,88,0.0,7.0,88,0.00,,,0.00,0,HR-IXPWINDi_r2_v1.2.,2013-07-27 05:18:00,
2013-07-27 01:23:00,70.1,66.6,30.01,East,88,1.0,3.0,89,0.00,,,0.00,0,HR-IXPWINDi_r2_v1.2.,2013-07-27 05:23:00,
2013-07-27 01:28:00,69.8,66.3,30.00,NNE,17,1.0,4.0,89,0.00,,,0.00,0,HR-IXPWINDi_r2_v1.2.,2013-07-27 05:28:00,
2013-07-27 01:33:00,69.6,65.8,30.00,ENE,62,0.0,4.0,88,0.00,,,0.00,0,HR-IXPWINDi_r2_v1.2.,2013-07-27 05:33:00,
2013-07-27 01:38:00,69.4,66.0,30.00,ENE,60,0.0,4.0,89,0.00,,,0.00,0,HR-IXPWINDi_r2_v1.2.,2013-07-27 05:38:00,
2013-07-27 01:43:00,69.3,65.9,30.00,NE,34,0.0,4.0,89,0.00,,,0.00,0,HR-IXPWINDi_r2_v1.2.,2013-07-27 05:43:00,
2013-07-27 01:48:00,69.2,65.4,30.00,SSE,149,0.0,6.0,88,0.00,,,0.00,0,HR-IXPWINDi_r2_v1.2.,2013-07-27 05:48:00,
2013-07-27 01:53:00,69.3,65.5,30.00,SSE,159,1.0,7.0,88,0.00,,,0.00,0,HR-IXPWINDi_r2_v1.2.,2013-07-27 05:53:00,
2013-07-27 01:59:00,69.4,65.3,30.00,NE,44,3.0,7.0,87,0.00,,,0.00,0,HR-IXPWINDi_r2_v1.2.,2013-07-27 05:59:00,
2013-07-27 02:04:00,69.3,65.5,29.99,North,355,4.0,5.0,88,0.00,,,0.00,0,HR-IXPWINDi_r2_v1.2.,2013-07-27 06:04:00,
2013-07-27 02:09:00,69.2,65.1,29.99,NNE,22,3.0,6.0,87,0.00,,,0.00,0,HR-IXPWINDi_r2_v1.2.,2013-07-27 06:09:00,
2013-07-27 02:14:00,69.2,65.1,29.99,North,355,4.0,6.0,87,0.00,,,0.00,0,HR-IXPWINDi_r2_v1.2.,2013-07-27 06:14:00,
2013-07-27 02:19:00,69.2,65.1,29.99,North,355,4.0,9.0,87,0.00,,,0.00,0,HR-IXPWINDi_r2_v1.2.,2013-07-27 06:19:00,
2013-07-27 02:25:00,69.1,65.0,29.98,North,350,2.0,9.0,87,0.00,,,0.00,0,HR-IXPWINDi_r2_v1.2.,2013-07-27 06:25:00,
2013-07-27 02:30:00,69.0,64.9,29.98,North,350,5.0,6.0,87,0.00,,,0.00,0,HR-IXPWINDi_r2_v1.2.,2013-07-27 06:30:00,
2013-07-27 02:35:00,69.0,64.9,29.98,NW,313,5.0,10.0,87,0.00,,,0.00,0,HR-IXPWINDi_r2_v1.2.,2013-07-27 06:35:00,
2013-07-27 02:40:00,69.0,64.9,29.98,North,9,3.0,10.0,87,0.00,,,0.00,0,HR-IXPWINDi_r2_v1.2.,2013-07-27 06:40:00,
2013-07-27 02:45:00,69.1,65.0,29.97,NNE,22,1.0,6.0,87,0.00,,,0.00,0,HR-IXPWINDi_r2_v1.2.,2013-07-27 06:45:00,
2013-07-27 02:50:00,69.1,65.0,29.97,NE,41,0.0,5.0,87,0.00,,,0.00,0,HR-IXPWINDi_r2_v1.2.,2013-07-27 06:50:00,
2013-07-27 02:56:00,68.6,65.2,29.97,NE,41,0.0,3.0,89,0.00,,,0.00,0,HR-IXPWINDi_r2_v1.2.,2013-07-27 06:56:00,
2013-07-27 03:01:00,68.1,65.0,29.97,South,174,2.0,5.0,90,0.00,,,0.00,0,HR-IXPWINDi_r2_v1.2.,2013-07-27 07:01:00,
2013-07-27 03:06:00,67.8,65.3,29.97,SSE,149,0.0,5.0,92,0.00,,,0.00,0,HR-IXPWINDi_r2_v1.2.,2013-07-27 07:06:00,
2013-07-27 03:11:00,67.4,65.2,29.97,NNW,344,3.0,5.0,93,0.00,,,0.00,0,HR-IXPWINDi_r2_v1.2.,2013-07-27 07:11:00,
2013-07-27 03:16:00,67.1,64.9,29.97,NNE,26,0.0,5.0,93,0.00,,,0.00,0,HR-IXPWINDi_r2_v1.2.,2013-07-27 07:16:00,
2013-07-27 03:21:00,66.8,65.0,29.96,NNE,26,0.0,4.0,94,0.00,,,0.00,0,HR-IXPWINDi_r2_v1.2.,2013-07-27 07:21:00,
2013-07-27 03:26:00,66.8,65.0,29.95,ESE,107,1.0,4.0,94,0.00,,,0.00,0,HR-IXPWINDi_r2_v1.2.,2013-07-27 07:26:00,
2013-07-27 03:31:00,66.7,65.2,29.95,ESE,122,4.0,6.0,95,0.00,,,0.00,0,HR-IXPWINDi_r2_v1.2.,2013-07-27 07:31:00,
2013-07-27 03:37:00,66.4,64.9,29.95,ESE,123,0.0,6.0,95,0.00,,,0.00,0,HR-IXPWINDi_r2_v1.2.,2013-07-27 07:37:00,
2013-07-27 03:42:00,66.3,64.8,29.95,SE,126,0.0,5.0,95,0.00,,,0.00,0,HR-IXPWINDi_r2_v1.2.,2013-07-27 07:42:00,
2013-07-27 03:47:00,66.3,65.1,29.95,SE,126,0.0,5.0,96,0.00,,,0.00,0,HR-IXPWINDi_r2_v1.2.,2013-07-27 07:47:00,
2013-07-27 03:52:00,66.3,65.1,29.95,SE,126,0.0,5.0,96,0.00,,,0.00,0,HR-IXPWINDi_r2_v1.2.,2013-07-27 07:52:00,
2013-07-27 03:57:00,66.3,65.1,29.95,SE,126,2.0,5.0,96,0.00,,,0.00,0,HR-IXPWINDi_r2_v1.2.,2013-07-27 07:57:00,
2013-07-27 04:02:00,66.2,65.0,29.95,SE,126,0.0,5.0,96,0.00,,,0.00,0,HR-IXPWINDi_r2_v1.2.,2013-07-27 08:02:00,
2013-07-27 04:07:00,66.3,65.1,29.95,SE,126,0.0,5.0,96,0.00,,,0.00,0,HR-IXPWINDi_r2_v1.2.,2013-07-27 08:07:00,
2013-07-27 04:12:00,66.3,65.1,29.95,NNE,18,2.0,6.0,96,0.00,,,0.00,0,HR-IXPWINDi_r2_v1.2.,2013-07-27 08:12:00,
2013-07-27 04:17:00,66.4,65.2,29.95,North,9,0.0,6.0,96,0.00,,,0.00,0,HR-IXPWINDi_r2_v1.2.,2013-07-27 08:17:00,
2013-07-27 04:23:00,66.5,65.3,29.95,NNE,22,1.0,5.0,96,0.00,,,0.00,0,HR-IXPWINDi_r2_v1.2.,2013-07-27 08:23:00,
2013-07-27 04:28:00,66.6,65.4,29.95,North,355,2.0,3.0,96,0.00,,,0.00,0,HR-IXPWINDi_r2_v1.2.,2013-07-27 08:28:00,
2013-07-27 04:33:00,66.8,65.6,29.95,NNW,340,3.0,5.0,96,0.00,,,0.00,0,HR-IXPWINDi_r2_v1.2.,2013-07-27 08:33:00,
2013-07-27 04:38:00,67.0,65.8,29.94,NNW,347,4.0,6.0,96,0.00,,,0.00,0,HR-IXPWINDi_r2_v1.2.,2013-07-27 08:38:00,
2013-07-27 04:43:00,67.2,66.0,29.94,NNE,13,2.0,6.0,96,0.00,,,0.00,0,HR-IXPWINDi_r2_v1.2.,2013-07-27 08:43:00,
2013-07-27 04:48:00,67.2,66.0,29.94,North,11,0.0,6.0,96,0.00,,,0.00,0,HR-IXPWINDi_r2_v1.2.,2013-07-27 08:48:00,
2013-07-27 04:53:00,67.3,65.8,29.94,North,11,0.0,5.0,95,0.00,,,0.00,0,HR-IXPWINDi_r2_v1.2.,2013-07-27 08:53:00,
2013-07-27 04:59:00,67.4,65.9,29.94,North,11,0.0,4.0,95,0.00,,,0.00,0,HR-IXPWINDi_r2_v1.2.,2013-07-27 08:59:00,
2013-07-27 05:04:00,67.3,65.8,29.94,NNE,33,0.0,2.0,95,0.00,,,0.00,0,HR-IXPWINDi_r2_v1.2.,2013-07-27 09:04:00,
2013-07-27 05:09:00,67.2,65.7,29.94,ENE,76,0.0,2.0,95,0.00,,,0.00,0,HR-IXPWINDi_r2_v1.2.,2013-07-27 09:09:00,
2013-07-27 05:14:00,67.0,65.8,29.94,NNE,15,3.0,6.0,96,0.00,,,0.00,0,HR-IXPWINDi_r2_v1.2.,2013-07-27 09:14:00,
2013-07-27 05:19:00,67.1,65.9,29.94,NNW,342,0.0,6.0,96,0.00,,,0.00,0,HR-IXPWINDi_r2_v1.2.,2013-07-27 09:19:00,
2013-07-27 05:24:00,67.1,65.9,29.94,NNW,342,0.0,6.0,96,0.00,,,0.00,0,HR-IXPWINDi_r2_v1.2.,2013-07-27 09:24:00,
2013-07-27 05:29:00,67.0,65.8,29.94,NNW,342,0.0,1.0,96,0.00,,,0.00,0,HR-IXPWINDi_r2_v1.2.,2013-07-27 09:29:00,
2013-07-27 05:34:00,67.1,65.9,29.94,NNW,342,0.0,2.0,96,0.00,,,0.00,0,HR-IXPWINDi_r2_v1.2.,2013-07-27 09:34:00,
2013-07-27 05:39:00,67.0,65.8,29.94,NNW,342,0.0,2.0,96,0.00,,,0.00,0,HR-IXPWINDi_r2_v1.2.,2013-07-27 09:39:00,
2013-07-27 05:44:00,66.9,65.7,29.94,SW,215,1.0,4.0,96,0.00,,,0.00,0,HR-IXPWINDi_r2_v1.2.,2013-07-27 09:44:00,
2013-07-27 05:49:00,66.9,65.7,29.94,SW,215,0.0,4.0,96,0.00,,,0.00,0,HR-IXPWINDi_r2_v1.2.,2013-07-27 09:49:00,
2013-07-27 05:55:00,67.0,65.8,29.94,SW,215,0.0,1.0,96,0.00,,,0.00,0,HR-IXPWINDi_r2_v1.2.,2013-07-27 09:55:00,
2013-07-27 06:00:00,67.0,65.8,29.94,SW,215,0.0,0.0,96,0.00,,,0.00,0,HR-IXPWINDi_r2_v1.2.,2013-07-27 10:00:00,
2013-07-27 06:05:00,66.9,65.7,29.94,SW,215,0.0,2.0,96,0.00,,,0.00,0,HR-IXPWINDi_r2_v1.2.,2013-07-27 10:05:00,
2013-07-27 06:10:00,66.9,65.7,29.94,SW,215,0.0,2.0,96,0.00,,,0.00,0,HR-IXPWINDi_r2_v1.2.,2013-07-27 10:10:00,
2013-07-27 06:15:00,66.8,65.9,29.94,SW,215,0.0,0.0,97,0.00,,,0.00,0,HR-IXPWINDi_r2_v1.2.,2013-07-27 10:15:00,
2013-07-27 06:20:00,66.9,66.0,29.94,SW,215,0.0,0.0,97,0.00,,,0.00,0,HR-IXPWINDi_r2_v1.2.,2013-07-27 10:20:00,
2013-07-27 06:25:00,67.0,66.1,29.94,SW,215,0.0,1.0,97,0.00,,,0.00,0,HR-IXPWINDi_r2_v1.2.,2013-07-27 10:25:00,
2013-07-27 06:30:00,67.0,66.1,29.94,North,5,0.0,5.0,97,0.00,,,0.00,0,HR-IXPWINDi_r2_v1.2.,2013-07-27 10:30:00,
2013-07-27 06:36:00,67.3,66.4,29.94,NNW,334,1.0,5.0,97,0.00,,,0.00,0,HR-IXPWINDi_r2_v1.2.,2013-07-27 10:36:00,
2013-07-27 06:41:00,67.3,66.4,29.94,NNW,340,3.0,4.0,97,0.00,,,0.00,0,HR-IXPWINDi_r2_v1.2.,2013-07-27 10:41:00,
2013-07-27 06:46:00,67.3,66.4,29.94,NNW,347,2.0,3.0,97,0.00,,,0.00,0,HR-IXPWINDi_r2_v1.2.,2013-07-27 10:46:00,
2013-07-27 06:51:00,67.4,66.5,29.94,NNW,347,3.0,4.0,97,0.00,,,0.00,0,HR-IXPWINDi_r2_v1.2.,2013-07-27 10:51:00,
2013-07-27 06:57:00,67.5,66.3,29.94,NNW,347,4.0,5.0,96,0.00,,,0.00,0,HR-IXPWINDi_r2_v1.2.,2013-07-27 10:57:00,
2013-07-27 07:02:00,67.6,66.4,29.94,North,349,3.0,5.0,96,0.00,,,0.00,0,HR-IXPWINDi_r2_v1.2.,2013-07-27 11:02:00,
2013-07-27 07:07:00,67.6,66.4,29.94,North,360,3.0,5.0,96,0.00,,,0.00,0,HR-IXPWINDi_r2_v1.2.,2013-07-27 11:07:00,
2013-07-27 07:12:00,67.8,66.6,29.94,North,360,0.0,5.0,96,0.00,,,0.00,0,HR-IXPWINDi_r2_v1.2.,2013-07-27 11:12:00,
2013-07-27 07:17:00,68.0,66.8,29.94,North,360,0.0,3.0,96,0.00,,,0.00,0,HR-IXPWINDi_r2_v1.2.,2013-07-27 11:17:00,
2013-07-27 07:22:00,67.9,66.7,29.94,North,5,3.0,4.0,96,0.00,,,0.00,5,HR-IXPWINDi_r2_v1.2.,2013-07-27 11:22:00,
2013-07-27 07:28:00,67.8,66.6,29.94,North,5,0.0,4.0,96,0.00,,,0.00,5,HR-IXPWINDi_r2_v1.2.,2013-07-27 11:28:00,
2013-07-27 07:33:00,67.7,66.5,29.94,North,360,1.0,3.0,96,0.00,,,0.00,0,HR-IXPWINDi_r2_v1.2.,2013-07-27 11:33:00,
2013-07-27 07:38:00,67.5,66.3,29.95,South,178,0.0,7.0,96,0.00,,,0.00,0,HR-IXPWINDi_r2_v1.2.,2013-07-27 11:38:00,
2013-07-27 07:43:00,67.1,65.9,29.95,South,180,2.0,7.0,96,0.00,,,0.00,0,HR-IXPWINDi_r2_v1.2.,2013-07-27 11:43:00,
2013-07-27 07:48:00,67.0,66.1,29.95,South,180,0.0,7.0,97,0.00,,,0.00,0,HR-IXPWINDi_r2_v1.2.,2013-07-27 11:48:00,
2013-07-27 07:53:00,67.1,66.2,29.94,South,180,0.0,3.0,97,0.00,,,0.00,5,HR-IXPWINDi_r2_v1.2.,2013-07-27 11:53:00,
2013-07-27 07:59:00,67.0,66.1,29.95,South,180,2.0,3.0,97,0.00,,,0.00,9,HR-IXPWINDi_r2_v1.2.,2013-07-27 11:59:00,
2013-07-27 08:04:00,66.8,65.9,29.95,South,180,3.0,5.0,97,0.00,,,0.00,7,HR-IXPWINDi_r2_v1.2.,2013-07-27 12:04:00,
2013-07-27 08:09:00,66.8,65.9,29.95,South,175,2.0,6.0,97,0.00,,,0.00,9,HR-IXPWINDi_r2_v1.2.,2013-07-27 12:09:00,
2013-07-27 08:14:00,66.6,65.7,29.95,South,170,0.0,6.0,97,0.00,,,0.00,30,HR-IXPWINDi_r2_v1.2.,2013-07-27 12:14:00,
2013-07-27 08:20:00,66.5,65.6,29.96,South,171,0.0,5.0,97,0.00,,,0.00,30,HR-IXPWINDi_r2_v1.2.,2013-07-27 12:20:00,
2013-07-27 08:25:00,66.6,65.7,29.95,South,171,0.0,4.0,97,0.00,,,0.00,63,HR-IXPWINDi_r2_v1.2.,2013-07-27 12:25:00,
2013-07-27 08:30:00,66.9,66.0,29.95,South,171,0.0,1.0,97,0.00,,,0.00,113,HR-IXPWINDi_r2_v1.2.,2013-07-27 12:30:00,
2013-07-27 08:35:00,67.1,66.2,29.95,WNW,288,0.0,4.0,97,0.00,,,0.00,120,HR-IXPWINDi_r2_v1.2.,2013-07-27 12:35:00,
2013-07-27 08:41:00,67.4,66.5,29.95,WNW,288,0.0,4.0,97,0.00,,,0.00,132,HR-IXPWINDi_r2_v1.2.,2013-07-27 12:41:00,
2013-07-27 08:46:00,67.7,66.8,29.95,WNW,289,0.0,3.0,97,0.00,,,0.00,107,HR-IXPWINDi_r2_v1.2.,2013-07-27 12:46:00,
2013-07-27 08:51:00,68.1,67.2,29.95,WNW,289,0.0,1.0,97,0.00,,,0.00,60,HR-IXPWINDi_r2_v1.2.,2013-07-27 12:51:00,
2013-07-27 08:56:00,68.2,67.2,29.95,WNW,288,0.0,1.0,97,0.00,,,0.00,56,HR-IXPWINDi_r2_v1.2.,2013-07-27 12:56:00,
2013-07-27 09:02:00,68.4,67.4,29.95,WNW,288,0.0,1.0,97,0.00,,,0.00,111,HR-IXPWINDi_r2_v1.2.,2013-07-27 13:02:00,
2013-07-27 09:07:00,68.5,67.5,29.95,WNW,288,0.0,2.0,97,0.00,,,0.00,132,HR-IXPWINDi_r2_v1.2.,2013-07-27 13:07:00,
2013-07-27 09:12:00,68.7,67.7,29.95,NNW,346,0.0,4.0,97,0.00,,,0.00,130,HR-IXPWINDi_r2_v1.2.,2013-07-27 13:12:00,
2013-07-27 09:18:00,69.2,68.2,29.95,NNW,346,0.0,4.0,97,0.00,,,0.00,169,HR-IXPWINDi_r2_v1.2.,2013-07-27 13:18:00,
2013-07-27 09:23:00,69.4,68.1,29.95,NNW,342,2.0,4.0,96,0.00,,,0.00,218,HR-IXPWINDi_r2_v1.2.,2013-07-27 13:23:00,
2013-07-27 09:28:00,69.8,68.5,29.95,North,355,0.0,6.0,96,0.00,,,0.00,192,HR-IXPWINDi_r2_v1.2.,2013-07-27 13:28:00,
2013-07-27 09:33:00,70.0,68.4,29.96,North,355,0.0,6.0,95,0.00,,,0.00,139,HR-IXPWINDi_r2_v1.2.,2013-07-27 13:33:00,
2013-07-27 09:38:00,70.1,68.5,29.96,North,355,0.0,1.0,95,0.00,,,0.00,135,HR-IXPWINDi_r2_v1.2.,2013-07-27 13:38:00,
2013-07-27 09:43:00,69.7,68.1,29.96,North,355,0.0,0.0,95,0.00,,,0.00,163,HR-IXPWINDi_r2_v1.2.,2013-07-27 13:43:00,
2013-07-27 09:48:00,70.1,68.8,29.96,North,355,0.0,0.0,96,0.00,,,0.00,193,HR-IXPWINDi_r2_v1.2.,2013-07-27 13:48:00,
2013-07-27 09:54:00,70.4,68.8,29.96,North,355,0.0,0.0,95,0.00,,,0.00,216,HR-IXPWINDi_r2_v1.2.,2013-07-27 13:54:00,
2013-07-27 09:59:00,70.6,69.0,29.95,North,355,0.0,0.0,95,0.00,,,0.00,258,HR-IXPWINDi_r2_v1.2.,2013-07-27 13:59:00,
2013-07-27 10:04:00,71.2,69.6,29.95,North,355,0.0,1.0,95,0.00,,,0.00,248,HR-IXPWINDi_r2_v1.2.,2013-07-27 14:04:00,
2013-07-27 10:09:00,71.5,69.6,29.95,North,355,2.0,3.0,94,0.00,,,0.00,294,HR-IXPWINDi_r2_v1.2.,2013-07-27 14:09:00,
2013-07-27 10:14:00,72.2,70.0,29.94,North,355,0.0,3.0,93,0.00,,,0.00,397,HR-IXPWINDi_r2_v1.2.,2013-07-27 14:14:00,
2013-07-27 10:20:00,72.6,69.4,29.94,North,355,0.0,3.0,90,0.00,,,0.00,360,HR-IXPWINDi_r2_v1.2.,2013-07-27 14:20:00,
2013-07-27 10:25:00,72.8,69.0,29.94,North,355,0.0,1.0,88,0.00,,,0.00,392,HR-IXPWINDi_r2_v1.2.,2013-07-27 14:25:00,
2013-07-27 10:30:00,73.4,69.2,29.94,North,355,0.0,1.0,87,0.00,,,0.00,362,HR-IXPWINDi_r2_v1.2.,2013-07-27 14:30:00,
2013-07-27 10:35:00,73.0,68.5,29.94,North,355,0.0,3.0,86,0.00,,,0.00,517,HR-IXPWINDi_r2_v1.2.,2013-07-27 14:35:00,
2013-07-27 10:40:00,73.6,69.8,29.94,North,355,0.0,3.0,88,0.00,,,0.00,299,HR-IXPWINDi_r2_v1.2.,2013-07-27 14:40:00,
2013-07-27 10:45:00,73.1,69.3,29.94,WNW,296,0.0,2.0,88,0.00,,,0.00,264,HR-IXPWINDi_r2_v1.2.,2013-07-27 14:45:00,
2013-07-27 10:50:00,73.2,69.4,29.94,WNW,285,2.0,3.0,88,0.00,,,0.00,322,HR-IXPWINDi_r2_v1.2.,2013-07-27 14:50:00,
2013-07-27 10:56:00,73.4,69.2,29.94,NNW,332,0.0,3.0,87,0.00,,,0.00,281,HR-IXPWINDi_r2_v1.2.,2013-07-27 14:56:00,
2013-07-27 11:01:00,73.3,69.8,29.94,NNW,332,0.0,3.0,89,0.00,,,0.00,274,HR-IXPWINDi_r2_v1.2.,2013-07-27 15:01:00,
2013-07-27 11:06:00,73.6,69.8,29.94,South,178,2.0,2.0,88,0.00,,,0.00,585,HR-IXPWINDi_r2_v1.2.,2013-07-27 15:06:00,
2013-07-27 11:11:00,73.7,68.5,29.94,SSE,157,1.0,5.0,84,0.00,,,0.00,670,HR-IXPWINDi_r2_v1.2.,2013-07-27 15:11:00,
2013-07-27 11:17:00,75.3,69.4,29.94,South,185,1.0,6.0,82,0.00,,,0.00,598,HR-IXPWINDi_r2_v1.2.,2013-07-27 15:17:00,
2013-07-27 11:22:00,74.5,68.6,29.94,SSW,194,3.0,6.0,82,0.00,,,0.00,578,HR-IXPWINDi_r2_v1.2.,2013-07-27 15:22:00,
2013-07-27 11:28:00,74.4,68.5,29.94,SSW,194,5.0,6.0,82,0.00,,,0.00,700,HR-IXPWINDi_r2_v1.2.,2013-07-27 15:28:00,
2013-07-27 11:33:00,75.1,69.5,29.94,NNW,333,2.0,6.0,83,0.00,,,0.00,598,HR-IXPWINDi_r2_v1.2.,2013-07-27 15:33:00,
2013-07-27 11:38:00,75.5,69.2,29.94,NNW,345,2.0,6.0,81,0.00,,,0.00,691,HR-IXPWINDi_r2_v1.2.,2013-07-27 15:38:00,
2013-07-27 11:43:00,75.8,68.8,29.94,NNW,344,2.0,4.0,79,0.00,,,0.00,343,HR-IXPWINDi_r2_v1.2.,2013-07-27 15:43:00,
2013-07-27 11:48:00,76.2,69.2,29.94,NNW,341,0.0,4.0,79,0.00,,,0.00,380,HR-IXPWINDi_r2_v1.2.,2013-07-27 15:48:00,
2013-07-27 11:53:00,76.4,69.3,29.94,NNW,341,0.0,4.0,79,0.00,,,0.00,357,HR-IXPWINDi_r2_v1.2.,2013-07-27 15:53:00,
2013-07-27 11:59:00,76.3,69.2,29.94,NNW,336,0.0,4.0,79,0.00,,,0.00,332,HR-IXPWINDi_r2_v1.2.,2013-07-27 15:59:00,
2013-07-27 12:04:00,75.2,68.2,29.94,SW,219,0.0,4.0,79,0.00,,,0.00,603,HR-IXPWINDi_r2_v1.2.,2013-07-27 16:04:00,
2013-07-27 12:09:00,75.8,68.0,29.93,SSW,198,1.0,6.0,77,0.00,,,0.00,728,HR-IXPWINDi_r2_v1.2.,2013-07-27 16:09:00,
2013-07-27 12:14:00,76.0,67.8,29.93,South,181,1.0,6.0,76,0.00,,,0.00,784,HR-IXPWINDi_r2_v1.2.,2013-07-27 16:14:00,
2013-07-27 12:20:00,76.1,68.7,29.93,South,181,0.0,3.0,78,0.00,,,0.00,622,HR-IXPWINDi_r2_v1.2.,2013-07-27 16:20:00,
2013-07-27 12:25:00,77.2,67.4,29.93,South,181,0.0,3.0,72,0.00,,,0.00,589,HR-IXPWINDi_r2_v1.2.,2013-07-27 16:25:00,
2013-07-27 12:30:00,76.4,67.0,29.93,South,182,0.0,5.0,73,0.00,,,0.00,578,HR-IXPWINDi_r2_v1.2.,2013-07-27 16:30:00,
2013-07-27 12:35:00,76.0,67.1,29.93,South,182,0.0,5.0,74,0.00,,,0.00,696,HR-IXPWINDi_r2_v1.2.,2013-07-27 16:35:00,
2013-07-27 12:40:00,77.1,67.7,29.92,South,175,1.0,4.0,73,0.00,,,0.00,512,HR-IXPWINDi_r2_v1.2.,2013-07-27 16:40:00,
2013-07-27 12:45:00,77.5,68.1,29.93,South,178,0.0,4.0,73,0.00,,,0.00,471,HR-IXPWINDi_r2_v1.2.,2013-07-27 16:45:00,
2013-07-27 12:51:00,76.9,68.3,29.93,South,178,2.0,4.0,75,0.00,,,0.00,371,HR-IXPWINDi_r2_v1.2.,2013-07-27 16:51:00,
2013-07-27 12:56:00,77.0,68.0,29.93,NW,304,2.0,4.0,74,0.00,,,0.00,308,HR-IXPWINDi_r2_v1.2.,2013-07-27 16:56:00,
2013-07-27 13:02:00,77.2,67.4,29.93,NW,304,0.0,3.0,72,0.00,,,0.00,283,HR-IXPWINDi_r2_v1.2.,2013-07-27 17:02:00,
2013-07-27 13:07:00,77.1,68.9,29.92,NW,304,1.0,3.0,76,0.00,,,0.00,262,HR-IXPWINDi_r2_v1.2.,2013-07-27 17:07:00,
2013-07-27 13:12:00,77.2,67.4,29.92,NW,304,0.0,2.0,72,0.00,,,0.00,302,HR-IXPWINDi_r2_v1.2.,2013-07-27 17:12:00,
2013-07-27 13:18:00,76.6,67.6,29.92,NW,306,0.0,2.0,74,0.00,,,0.00,323,HR-IXPWINDi_r2_v1.2.,2013-07-27 17:18:00,
2013-07-27 13:24:00,77.2,68.6,29.92,West,276,0.0,2.0,75,0.00,,,0.00,350,HR-IXPWINDi_r2_v1.2.,2013-07-27 17:24:00,
2013-07-27 13:29:00,77.4,68.0,29.92,West,276,0.0,2.0,73,0.00,,,0.00,355,HR-IXPWINDi_r2_v1.2.,2013-07-27 17:29:00,
2013-07-27 13:34:00,77.4,69.2,29.92,West,276,0.0,1.0,76,0.00,,,0.00,387,HR-IXPWINDi_r2_v1.2.,2013-07-27 17:34:00,
2013-07-27 13:39:00,78.6,67.5,29.91,West,277,1.0,1.0,69,0.00,,,0.00,438,HR-IXPWINDi_r2_v1.2.,2013-07-27 17:39:00,
2013-07-27 13:44:00,79.4,67.4,29.91,North,5,1.0,3.0,67,0.00,,,0.00,448,HR-IXPWINDi_r2_v1.2.,2013-07-27 17:44:00,
2013-07-27 13:49:00,78.1,66.6,29.91,NNW,330,0.0,4.0,68,0.00,,,0.00,388,HR-IXPWINDi_r2_v1.2.,2013-07-27 17:49:00,
2013-07-27 13:55:00,77.8,66.8,29.91,NNW,340,2.0,4.0,69,0.00,,,0.00,329,HR-IXPWINDi_r2_v1.2.,2013-07-27 17:55:00,
2013-07-27 14:00:00,77.3,69.5,29.91,NNW,340,0.0,4.0,77,0.00,,,0.00,353,HR-IXPWINDi_r2_v1.2.,2013-07-27 18:00:00,
2013-07-27 14:05:00,77.5,68.9,29.90,West,259,0.0,3.0,75,0.00,,,0.00,392,HR-IXPWINDi_r2_v1.2.,2013-07-27 18:05:00,
2013-07-27 14:10:00,78.1,67.0,29.90,NW,320,1.0,3.0,69,0.00,,,0.00,345,HR-IXPWINDi_r2_v1.2.,2013-07-27 18:10:00,
2013-07-27 14:16:00,78.4,69.4,29.90,NW,320,0.0,3.0,74,0.00,,,0.00,441,HR-IXPWINDi_r2_v1.2.,2013-07-27 18:16:00,
2013-07-27 14:21:00,79.2,67.7,29.90,NW,320,0.0,3.0,68,0.00,,,0.00,397,HR-IXPWINDi_r2_v1.2.,2013-07-27 18:21:00,
2013-07-27 14:26:00,78.7,65.0,29.90,NNW,329,1.0,4.0,63,0.00,,,0.00,381,HR-IXPWINDi_r2_v1.2.,2013-07-27 18:26:00,
2013-07-27 14:32:00,78.7,65.9,29.90,NNW,329,0.0,4.0,65,0.00,,,0.00,380,HR-IXPWINDi_r2_v1.2.,2013-07-27 18:32:00,
2013-07-27 14:37:00,77.9,68.5,29.90,NNW,329,0.0,2.0,73,0.00,,,0.00,424,HR-IXPWINDi_r2_v1.2.,2013-07-27 18:37:00,
2013-07-27 14:42:00,77.8,66.3,29.90,NNW,329,0.0,1.0,68,0.00,,,0.00,448,HR-IXPWINDi_r2_v1.2.,2013-07-27 18:42:00,
2013-07-27 14:47:00,78.8,67.3,29.89,NW,318,0.0,3.0,68,0.00,,,0.00,935,HR-IXPWINDi_r2_v1.2.,2013-07-27 18:47:00,
2013-07-27 14:52:00,79.8,68.7,29.89,NW,320,3.0,3.0,69,0.00,,,0.00,740,HR-IXPWINDi_r2_v1.2.,2013-07-27 18:52:00,
2013-07-27 14:57:00,80.1,67.2,29.89,NNW,330,1.0,5.0,65,0.00,,,0.00,550,HR-IXPWINDi_r2_v1.2.,2013-07-27 18:57:00,
2013-07-27 15:02:00,80.1,66.3,29.89,North,355,2.0,5.0,63,0.00,,,0.00,926,HR-IXPWINDi_r2_v1.2.,2013-07-27 19:02:00,
2013-07-27 15:07:00,80.8,67.0,29.89,NE,36,3.0,5.0,63,0.00,,,0.00,318,HR-IXPWINDi_r2_v1.2.,2013-07-27 19:07:00,
2013-07-27 15:12:00,79.6,66.7,29.89,NW,321,3.0,5.0,65,0.00,,,0.00,301,HR-IXPWINDi_r2_v1.2.,2013-07-27 19:12:00,
2013-07-27 15:17:00,77.6,66.6,29.89,NW,321,0.0,4.0,69,0.00,,,0.00,339,HR-IXPWINDi_r2_v1.2.,2013-07-27 19:17:00,
2013-07-27 15:23:00,80.0,67.1,29.88,NNE,22,0.0,3.0,65,0.00,,,0.00,390,HR-IXPWINDi_r2_v1.2.,2013-07-27 19:23:00,
2013-07-27 15:28:00,80.3,68.3,29.88,NE,51,0.0,3.0,67,0.00,,,0.00,362,HR-IXPWINDi_r2_v1.2.,2013-07-27 19:28:00,
2013-07-27 15:33:00,79.9,67.0,29.88,NE,51,1.0,3.0,65,0.00,,,0.00,459,HR-IXPWINDi_r2_v1.2.,2013-07-27 19:33:00,
2013-07-27 15:38:00,80.5,68.9,29.88,NE,51,0.0,1.0,68,0.00,,,0.00,376,HR-IXPWINDi_r2_v1.2.,2013-07-27 19:38:00,
2013-07-27 15:43:00,80.2,68.2,29.88,NE,51,0.0,1.0,67,0.00,,,0.00,332,HR-IXPWINDi_r2_v1.2.,2013-07-27 19:43:00,
2013-07-27 15:49:00,78.5,67.8,29.87,NE,51,0.0,1.0,70,0.00,,,0.00,278,HR-IXPWINDi_r2_v1.2.,2013-07-27 19:49:00,
2013-07-27 15:54:00,78.5,68.3,29.87,NE,51,0.0,1.0,71,0.00,,,0.00,229,HR-IXPWINDi_r2_v1.2.,2013-07-27 19:54:00,
2013-07-27 15:59:00,76.8,68.2,29.87,NE,51,0.0,2.0,75,0.00,,,0.00,276,HR-IXPWINDi_r2_v1.2.,2013-07-27 19:59:00,
2013-07-27 16:04:00,76.8,68.6,29.87,NE,51,0.0,2.0,76,0.00,,,0.00,446,HR-IXPWINDi_r2_v1.2.,2013-07-27 20:04:00,
2013-07-27 16:09:00,78.6,65.8,29.87,NE,44,0.0,1.0,65,0.00,,,0.00,278,HR-IXPWINDi_r2_v1.2.,2013-07-27 20:09:00,
2013-07-27 16:14:00,79.4,67.4,29.87,NE,46,0.0,1.0,67,0.00,,,0.00,272,HR-IXPWINDi_r2_v1.2.,2013-07-27 20:14:00,
2013-07-27 16:19:00,79.7,68.6,29.87,NE,46,0.0,1.0,69,0.00,,,0.00,315,HR-IXPWINDi_r2_v1.2.,2013-07-27 20:19:00,
2013-07-27 16:25:00,79.1,67.1,29.87,NE,47,0.0,1.0,67,0.00,,,0.00,327,HR-IXPWINDi_r2_v1.2.,2013-07-27 20:25:00,
2013-07-27 16:30:00,79.0,66.6,29.87,NE,50,1.0,1.0,66,0.00,,,0.00,468,HR-IXPWINDi_r2_v1.2.,2013-07-27 20:30:00,
2013-07-27 16:35:00,79.0,67.9,29.87,NE,53,0.0,1.0,69,0.00,,,0.00,348,HR-IXPWINDi_r2_v1.2.,2013-07-27 20:35:00,
2013-07-27 16:40:00,78.2,68.4,29.87,NNE,32,0.0,2.0,72,0.00,,,0.00,279,HR-IXPWINDi_r2_v1.2.,2013-07-27 20:40:00,
2013-07-27 16:45:00,77.3,67.1,29.87,NW,317,0.0,3.0,71,0.00,,,0.00,274,HR-IXPWINDi_r2_v1.2.,2013-07-27 20:45:00,
2013-07-27 16:50:00,78.9,67.4,29.87,NW,304,0.0,3.0,68,0.00,,,0.00,805,HR-IXPWINDi_r2_v1.2.,2013-07-27 20:50:00,
2013-07-27 16:55:00,79.0,65.7,29.87,SE,125,2.0,5.0,64,0.00,,,0.00,606,HR-IXPWINDi_r2_v1.2.,2013-07-27 20:55:00,
2013-07-27 17:00:00,79.4,65.7,29.86,SE,125,0.0,5.0,63,0.00,,,0.00,592,HR-IXPWINDi_r2_v1.2.,2013-07-27 21:00:00,
2013-07-27 17:06:00,79.3,65.1,29.86,SSE,150,0.0,6.0,62,0.00,,,0.00,422,HR-IXPWINDi_r2_v1.2.,2013-07-27 21:06:00,
2013-07-27 17:11:00,80.1,68.1,29.86,SSE,150,0.0,6.0,67,0.00,,,0.00,165,HR-IXPWINDi_r2_v1.2.,2013-07-27 21:11:00,
2013-07-27 17:16:00,79.2,65.5,29.86,SSE,149,0.0,5.0,63,0.00,,,0.00,204,HR-IXPWINDi_r2_v1.2.,2013-07-27 21:16:00,
2013-07-27 17:22:00,79.4,68.7,29.86,SSE,149,0.0,5.0,70,0.00,,,0.00,508,HR-IXPWINDi_r2_v1.2.,2013-07-27 21:22:00,
2013-07-27 17:27:00,78.9,68.6,29.86,SSE,149,4.0,5.0,71,0.00,,,0.00,214,HR-IXPWINDi_r2_v1.2.,2013-07-27 21:27:00,
2013-07-27 17:32:00,78.1,67.5,29.86,SSE,147,1.0,6.0,70,0.00,,,0.00,121,HR-IXPWINDi_r2_v1.2.,2013-07-27 21:32:00,
2013-07-27 17:37:00,77.6,69.0,29.86,SSE,148,0.0,6.0,75,0.00,,,0.00,116,HR-IXPWINDi_r2_v1.2.,2013-07-27 21:37:00,
2013-07-27 17:42:00,77.2,69.4,29.86,SSE,149,2.0,4.0,77,0.00,,,0.00,90,HR-IXPWINDi_r2_v1.2.,2013-07-27 21:42:00,
2013-07-27 17:47:00,76.6,68.8,29.86,SSE,149,0.0,4.0,77,0.00,,,0.00,44,HR-IXPWINDi_r2_v1.2.,2013-07-27 21:47:00,
2013-07-27 17:52:00,75.3,66.4,29.87,SSE,154,8.0,14.0,74,0.00,,,0.00,46,HR-IXPWINDi_r2_v1.2.,2013-07-27 21:52:00,
2013-07-27 17:57:00,74.1,66.0,29.87,ESE,111,1.0,14.0,76,0.00,,,0.00,60,HR-IXPWINDi_r2_v1.2.,2013-07-27 21:57:00,
2013-07-27 18:02:00,72.7,65.4,29.87,ESE,117,4.0,10.0,78,0.00,,,0.00,86,HR-IXPWINDi_r2_v1.2.,2013-07-27 22:02:00,
2013-07-27 18:07:00,71.3,65.1,29.87,ESE,119,1.0,8.0,81,0.00,,,0.00,74,HR-IXPWINDi_r2_v1.2.,2013-07-27 22:07:00,
2013-07-27 18:13:00,71.3,65.5,29.87,NNW,332,3.0,7.0,82,0.00,,,0.00,53,HR-IXPWINDi_r2_v1.2.,2013-07-27 22:13:00,
2013-07-27 18:18:00,71.1,64.9,29.87,NNE,14,2.0,11.0,81,0.00,,,0.00,84,HR-IXPWINDi_r2_v1.2.,2013-07-27 22:18:00,
2013-07-27 18:23:00,71.7,65.5,29.88,NE,39,5.0,11.0,81,0.00,,,0.00,151,HR-IXPWINDi_r2_v1.2.,2013-07-27 22:23:00,
2013-07-27 18:28:00,71.1,64.9,29.88,ENE,59,4.0,6.0,81,0.00,,,0.00,100,HR-IXPWINDi_r2_v1.2.,2013-07-27 22:28:00,
2013-07-27 18:34:00,70.7,65.2,29.88,East,92,1.0,7.0,83,0.00,,,0.00,107,HR-IXPWINDi_r2_v1.2.,2013-07-27 22:34:00,
2013-07-27 18:39:00,70.7,65.2,29.88,ESE,103,0.0,7.0,83,0.00,,,0.00,63,HR-IXPWINDi_r2_v1.2.,2013-07-27 22:39:00,
2013-07-27 18:44:00,70.7,65.6,29.88,ESE,103,0.0,7.0,84,0.00,,,0.00,67,HR-IXPWINDi_r2_v1.2.,2013-07-27 22:44:00,
2013-07-27 18:49:00,70.8,65.7,29.88,SE,128,2.0,6.0,84,0.00,,,0.00,86,HR-IXPWINDi_r2_v1.2.,2013-07-27 22:49:00,
2013-07-27 18:54:00,70.6,65.5,29.88,ESE,114,4.0,6.0,84,0.00,,,0.00,79,HR-IXPWINDi_r2_v1.2.,2013-07-27 22:54:00,
2013-07-27 19:00:00,70.3,66.2,29.88,SE,130,5.0,8.0,87,0.00,,,0.00,74,HR-IXPWINDi_r2_v1.2.,2013-07-27 23:00:00,
2013-07-27 19:05:00,69.7,65.9,29.88,ESE,111,0.0,8.0,88,0.00,,,0.00,74,HR-IXPWINDi_r2_v1.2.,2013-07-27 23:05:00,
2013-07-27 19:10:00,70.0,66.2,29.88,ESE,111,0.0,6.0,88,0.00,,,0.00,60,HR-IXPWINDi_r2_v1.2.,2013-07-27 23:10:00,
2013-07-27 19:15:00,70.2,66.4,29.89,ESE,111,1.0,5.0,88,0.00,,,0.00,53,HR-IXPWINDi_r2_v1.2.,2013-07-27 23:15:00,
2013-07-27 19:20:00,70.1,66.6,29.88,ESE,122,4.0,5.0,89,0.00,,,0.00,60,HR-IXPWINDi_r2_v1.2.,2013-07-27 23:20:00,
2013-07-27 19:25:00,69.9,66.4,29.88,ESE,123,5.0,7.0,89,0.00,,,0.00,53,HR-IXPWINDi_r2_v1.2.,2013-07-27 23:25:00,
2013-07-27 19:30:00,69.9,66.4,29.88,SSE,149,2.0,7.0,89,0.00,,,0.00,54,HR-IXPWINDi_r2_v1.2.,2013-07-27 23:30:00,
2013-07-27 19:35:00,70.6,66.8,29.89,SSE,149,0.0,6.0,88,0.00,,,0.00,60,HR-IXPWINDi_r2_v1.2.,2013-07-27 23:35:00,
2013-07-27 19:40:00,71.3,67.2,29.88,SE,127,0.0,4.0,87,0.00,,,0.00,63,HR-IXPWINDi_r2_v1.2.,2013-07-27 23:40:00,
2013-07-27 19:45:00,71.0,66.5,29.88,ESE,121,1.0,2.0,86,0.00,,,0.00,60,HR-IXPWINDi_r2_v1.2.,2013-07-27 23:45:00,
2013-07-27 19:51:00,70.4,66.3,29.88,ESE,121,0.0,4.0,87,0.00,,,0.00,51,HR-IXPWINDi_r2_v1.2.,2013-07-27 23:51:00,
2013-07-27 19:56:00,70.2,66.4,29.88,ESE,121,0.0,4.0,88,0.00,,,0.00,46,HR-IXPWINDi_r2_v1.2.,2013-07-27 23:56:00,
2013-07-27 20:01:00,70.1,66.6,29.88,ESE,121,0.0,2.0,89,0.00,,,0.00,42,HR-IXPWINDi_r2_v1.2.,2013-07-28 00:01:00,
2013-07-27 20:06:00,70.0,66.5,29.89,ESE,121,2.0,4.0,89,0.00,,,0.00,42,HR-IXPWINDi_r2_v1.2.,2013-07-28 00:06:00,
2013-07-27 20:11:00,69.8,66.7,29.88,ESE,121,1.0,4.0,90,0.00,,,0.00,35,HR-IXPWINDi_r2_v1.2.,2013-07-28 00:11:00,
2013-07-27 20:16:00,69.8,67.0,29.88,ESE,121,0.0,4.0,91,0.00,,,0.00,26,HR-IXPWINDi_r2_v1.2.,2013-07-28 00:16:00,
2013-07-27 20:22:00,69.8,66.7,29.89,ENE,71,0.0,5.0,90,0.00,,,0.00,19,HR-IXPWINDi_r2_v1.2.,2013-07-28 00:22:00,
2013-07-27 20:27:00,70.0,66.9,29.89,NE,48,0.0,5.0,90,0.00,,,0.00,9,HR-IXPWINDi_r2_v1.2.,2013-07-28 00:27:00,
2013-07-27 20:32:00,69.9,66.4,29.89,NE,48,0.0,3.0,89,0.00,,,0.00,5,HR-IXPWINDi_r2_v1.2.,2013-07-28 00:32:00,
2013-07-27 20:37:00,69.9,66.8,29.90,NE,48,0.0,3.0,90,0.00,,,0.00,0,HR-IXPWINDi_r2_v1.2.,2013-07-28 00:37:00,
2013-07-27 20:42:00,69.8,66.7,29.90,NE,48,0.0,1.0,90,0.00,,,0.00,0,HR-IXPWINDi_r2_v1.2.,2013-07-28 00:42:00,
2013-07-27 20:47:00,69.4,66.6,29.90,NE,48,0.0,1.0,91,0.00,,,0.00,0,HR-IXPWINDi_r2_v1.2.,2013-07-28 00:47:00,
2013-07-27 20:52:00,69.5,66.7,29.90,ESE,119,0.0,2.0,91,0.00,,,0.00,0,HR-IXPWINDi_r2_v1.2.,2013-07-28 00:52:00,
2013-07-27 20:57:00,69.3,66.8,29.90,ESE,119,0.0,4.0,92,0.00,,,0.00,0,HR-IXPWINDi_r2_v1.2.,2013-07-28 00:57:00,
2013-07-27 21:02:00,69.1,66.6,29.90,ESE,119,0.0,4.0,92,0.00,,,0.00,0,HR-IXPWINDi_r2_v1.2.,2013-07-28 01:02:00,
2013-07-27 21:08:00,69.2,66.7,29.90,ESE,119,0.0,1.0,92,0.00,,,0.00,0,HR-IXPWINDi_r2_v1.2.,2013-07-28 01:08:00,
2013-07-27 21:13:00,69.1,66.3,29.90,ESE,119,1.0,1.0,91,0.00,,,0.00,0,HR-IXPWINDi_r2_v1.2.,2013-07-28 01:13:00,
2013-07-27 21:18:00,69.2,66.7,29.91,ESE,119,0.0,1.0,92,0.00,,,0.00,0,HR-IXPWINDi_r2_v1.2.,2013-07-28 01:18:00,
2013-07-27 21:23:00,69.1,66.3,29.91,ESE,115,0.0,4.0,91,0.00,,,0.00,0,HR-IXPWINDi_r2_v1.2.,2013-07-28 01:23:00,
2013-07-27 21:28:00,68.6,66.1,29.91,ESE,115,0.0,4.0,92,0.00,,,0.00,0,HR-IXPWINDi_r2_v1.2.,2013-07-28 01:28:00,
2013-07-27 21:33:00,68.5,66.0,29.91,ESE,115,0.0,4.0,92,0.00,,,0.00,0,HR-IXPWINDi_r2_v1.2.,2013-07-28 01:33:00,
2013-07-27 21:39:00,68.5,66.3,29.91,ESE,115,0.0,4.0,93,0.00,,,0.00,0,HR-IXPWINDi_r2_v1.2.,2013-07-28 01:39:00,
2013-07-27 21:44:00,68.3,66.1,29.91,ESE,115,0.0,1.0,93,0.00,,,0.00,0,HR-IXPWINDi_r2_v1.2.,2013-07-28 01:44:00,
2013-07-27 21:49:00,68.3,66.1,29.91,ESE,115,0.0,4.0,93,0.00,,,0.00,0,HR-IXPWINDi_r2_v1.2.,2013-07-28 01:49:00,
2013-07-27 21:54:00,68.2,66.0,29.91,ESE,115,0.0,6.0,93,0.00,,,0.00,0,HR-IXPWINDi_r2_v1.2.,2013-07-28 01:54:00,
2013-07-27 21:59:00,68.1,65.9,29.91,ESE,115,0.0,6.0,93,0.00,,,0.00,0,HR-IXPWINDi_r2_v1.2.,2013-07-28 01:59:00,
2013-07-27 22:04:00,68.0,66.1,29.91,ESE,106,0.0,2.0,94,0.00,,,0.00,0,HR-IXPWINDi_r2_v1.2.,2013-07-28 02:04:00,
2013-07-27 22:09:00,68.2,66.0,29.92,NNW,342,3.0,4.0,93,0.00,,,0.00,0,HR-IXPWINDi_r2_v1.2.,2013-07-28 02:09:00,
2013-07-27 22:14:00,68.5,66.0,29.92,North,350,4.0,4.0,92,0.00,,,0.00,0,HR-IXPWINDi_r2_v1.2.,2013-07-28 02:14:00,
2013-07-27 22:19:00,68.7,66.2,29.91,NNW,345,0.0,7.0,92,0.00,,,0.00,0,HR-IXPWINDi_r2_v1.2.,2013-07-28 02:19:00,
2013-07-27 22:24:00,68.6,66.1,29.92,SE,141,2.0,7.0,92,0.00,,,0.00,0,HR-IXPWINDi_r2_v1.2.,2013-07-28 02:24:00,
2013-07-27 22:29:00,68.4,65.9,29.91,SE,130,1.0,4.0,92,0.00,,,0.00,0,HR-IXPWINDi_r2_v1.2.,2013-07-28 02:29:00,
2013-07-27 22:34:00,68.6,66.4,29.91,SE,130,0.0,4.0,93,0.00,,,0.00,0,HR-IXPWINDi_r2_v1.2.,2013-07-28 02:34:00,
2013-07-27 22:39:00,68.5,66.0,29.91,SE,130,0.0,1.0,92,0.00,,,0.00,0,HR-IXPWINDi_r2_v1.2.,2013-07-28 02:39:00,
2013-07-27 22:44:00,68.3,66.1,29.92,SE,130,0.0,1.0,93,0.00,,,0.00,0,HR-IXPWINDi_r2_v1.2.,2013-07-28 02:44:00,
2013-07-27 22:49:00,68.0,65.8,29.92,SSE,152,0.0,2.0,93,0.00,,,0.00,0,HR-IXPWINDi_r2_v1.2.,2013-07-28 02:49:00,
2013-07-27 22:54:00,67.9,66.0,29.92,South,176,2.0,5.0,94,0.00,,,0.00,0,HR-IXPWINDi_r2_v1.2.,2013-07-28 02:54:00,
2013-07-27 22:59:00,67.7,65.8,29.91,SSE,148,0.0,6.0,94,0.00,,,0.00,0,HR-IXPWINDi_r2_v1.2.,2013-07-28 02:59:00,
2013-07-27 23:05:00,67.7,66.1,29.91,SSE,148,0.0,6.0,95,0.00,,,0.00,0,HR-IXPWINDi_r2_v1.2.,2013-07-28 03:05:00,
2013-07-27 23:10:00,67.7,66.1,29.91,SSE,148,0.0,1.0,95,0.00,,,0.00,0,HR-IXPWINDi_r2_v1.2.,2013-07-28 03:10:00,
2013-07-27 23:15:00,67.5,66.0,29.91,SSE,148,0.0,0.0,95,0.00,,,0.00,0,HR-IXPWINDi_r2_v1.2.,2013-07-28 03:15:00,
2013-07-27 23:20:00,67.4,65.9,29.91,SSE,148,0.0,0.0,95,0.00,,,0.00,0,HR-IXPWINDi_r2_v1.2.,2013-07-28 03:20:00,
2013-07-27 23:25:00,67.3,65.8,29.92,SSE,148,0.0,0.0,95,0.00,,,0.00,0,HR-IXPWINDi_r2_v1.2.,2013-07-28 03:25:00,
2013-07-27 23:30:00,67.0,65.8,29.92,SSE,148,0.0,0.0,96,0.00,,,0.00,0,HR-IXPWINDi_r2_v1.2.,2013-07-28 03:30:00,
2013-07-27 23:36:00,67.0,65.8,29.91,SSE,148,0.0,0.0,96,0.00,,,0.00,0,HR-IXPWINDi_r2_v1.2.,2013-07-28 03:36:00,
2013-07-27 23:41:00,66.9,65.7,29.91,SSE,148,0.0,2.0,96,0.00,,,0.00,0,HR-IXPWINDi_r2_v1.2.,2013-07-28 03:41:00,
2013-07-27 23:46:00,66.8,65.6,29.91,SSE,148,0.0,2.0,96,0.00,,,0.00,0,HR-IXPWINDi_r2_v1.2.,2013-07-28 03:46:00,
2013-07-27 23:51:00,66.8,65.6,29.91,SSE,148,0.0,2.0,96,0.00,,,0.00,0,HR-IXPWINDi_r2_v1.2.,2013-07-28 03:51:00,
2013-07-27 23:57:00,66.8,65.6,29.92,SSE,148,0.0,0.0,96,0.00,,,0.00,0,HR-IXPWINDi_r2_v1.2.,2013-07-28 03:57:00,